Location: Zagreb
(45.8000°N, 16.0000°E)
Time: 15:02:02
(UTC+02:00)

ISS - Visible Passes

Search period start: 21 May 2018 00:00
Search period end: 31 May 2018 00:00
Orbit: 402 x 407 km, 51.6° (Epoch: 22 May)

Date Brightness Start Highest point End Pass type
(mag) Time Alt. Az. Time Alt. Az. Time Alt. Az.
21 May -1.8 00:46:30 10° WNW 00:49:26 29° N 00:52:20 10° ENE visible
21 May -2.2 02:23:24 10° NW 02:26:27 35° NNE 02:29:31 10° E visible
21 May -3.9 03:59:52 10° WNW 04:03:06 60° SSW 04:06:19 10° SE visible
21 May -4.0 22:17:09 10° SW 22:20:24 71° SSE 22:23:39 10° ENE visible
21 May -2.1 23:54:04 10° W 23:57:05 33° NNW 00:00:06 10° NE visible
22 May -1.8 01:31:10 10° NW 01:34:08 30° N 01:37:04 10° ENE visible
22 May -3.8 03:07:39 10° WNW 03:10:56 82° NNE 03:14:11 10° ESE visible
22 May -3.4 21:25:11 10° SW 21:28:17 40° SE 21:31:23 10° ENE visible
22 May -2.6 23:01:37 10° W 23:04:45 42° NNW 23:07:55 10° NE visible
23 May -1.7 00:38:52 10° WNW 00:41:46 28° N 00:44:39 10° ENE visible
23 May -3.1 02:15:28 10° WNW 02:18:41 53° NNE 02:21:54 10° E visible
23 May -3.0 03:52:11 10° W 03:55:03 28° SW 03:57:53 10° SSE visible
23 May -3.3 22:09:14 10° WSW 22:12:29 61° NNW 22:15:44 10° ENE visible
23 May -1.7 23:46:29 10° WNW 23:49:23 28° N 23:52:17 10° ENE visible
24 May -2.4 01:23:17 10° NW 01:26:23 39° NNE 01:27:52 24° ENE visible
24 May -1.5 02:59:46 10° WNW 03:07:32 - SE 03:00:16 13° WNW visible
24 May -3.9 21:16:58 10° WSW 21:20:14 85° SSE 21:23:31 10° ENE visible
24 May -1.9 22:54:00 10° WNW 22:56:59 31° N 22:59:58 10° NE visible
25 May -2.0 00:31:02 10° NW 00:34:02 31° N 00:35:39 20° ENE visible
25 May -1.5 02:07:30 10° WNW 02:08:14 16° WNW 02:08:14 16° WNW visible
25 May -2.3 22:01:31 10° W 22:04:37 38° NNW 22:07:43 10° NE visible
25 May -1.8 23:38:44 10° WNW 23:41:38 28° N 23:44:31 10° ENE visible
26 May -2.2 01:15:16 10° WNW 01:17:08 30° NW 01:17:08 30° NW visible
26 May -2.9 21:09:04 10° W 21:12:17 53° NNW 21:15:30 10° ENE visible
26 May -1.7 22:46:19 10° WNW 22:49:12 28° N 22:52:06 10° ENE visible
27 May -2.7 00:23:03 10° NW 00:26:12 43° NNE 00:26:17 42° NNE visible
27 May -1.8 21:53:50 10° WNW 21:56:47 30° N 21:59:44 10° NE visible
27 May -2.2 23:30:47 10° NW 23:33:49 33° NNE 23:35:31 20° ENE visible
28 May -1.5 01:07:14 10° WNW 01:08:08 17° WNW 01:08:08 17° WNW visible
28 May -1.9 22:38:27 10° WNW 22:41:23 29° N 22:44:19 10° ENE visible
29 May -2.9 00:14:58 10° WNW 00:17:26 47° NW 00:17:26 47° NW visible
29 May -1.8 21:46:02 10° WNW 21:48:56 28° N 21:51:49 10° ENE visible
29 May -3.0 23:22:42 10° NW 23:25:53 48° NNE 23:26:46 36° ENE visible
30 May -0.9 00:59:19 10° WNW 00:59:23 10° WNW 00:59:23 10° WNW visible
30 May -2.4 22:30:25 10° NW 22:33:29 36° NNE 22:36:08 13° E visible
